#timestamp,LO_Frequency,Hit,StdDev 
1617174015.3,286047001.4,N
1617174035.1,286047001.7,N
1617174055.9,286047001.4,N
1617174075.7,286047004.1,Y
1617174095.6,286047002.3,P
1617174115.4,286047000.2,N
1617174135.2,286047001.6,N
1617174155.1,286047002.6,Y
1617174156.0,286047002.6,P
1617174175.8,286047000.0,N
1617174195.7,286046998.4,N
1617174215.5,286046998.8,N
1617174235.3,286046998.3,N
1617174255.2,286047000.5,N
1617174275.9,286046998.5,N
1617174295.7,286046999.0,N
1617174315.6,286046999.3,N
1617174335.4,286046997.8,N
1617174355.3,286047011.9,Y
1617174375.1,286046999.1,P
1617174376.0,286046999.1,P
1617174395.8,286046996.8,P
1617174415.7,286046998.6,N
1617174435.5,286046998.3,N
1617174455.3,286046999.2,N
1617174475.2,286047000.8,N
1617174495.0,286047000.8,N
1617174495.9,286047000.8,N
1617174515.8,286047000.4,N
1617174535.6,286046998.4,N
1617174555.4,286047001.1,N
1617174575.3,286047002.8,N
1617174595.1,286047002.3,N
1617174615.8,286047000.6,N
1617174635.7,286047001.1,N
1617174655.5,286047000.0,N
1617174675.3,286047000.7,N
1617174695.2,286047000.6,N
1617174715.0,286047000.4,N
1617174715.9,286047000.4,N
1617174735.8,286047000.5,N
1617174755.6,286047002.8,N
1617174775.4,286047000.0,N
1617174795.3,286047001.6,N
1617174815.1,286047002.8,N
1617174835.8,286047000.3,N
1617174855.7,286046999.7,N
1617174875.5,286047002.3,N
1617174895.4,286046999.8,N
1617174915.2,286047000.4,N
1617174935.0,286047000.1,N
1617174935.9,286047000.1,N
1617174955.8,286047000.1,N
1617174975.6,286046999.9,N
1617174995.4,286047002.8,N
1617175015.3,286047000.0,N
1617175035.1,286047000.1,N
1617175055.9,286047000.7,N
1617175075.7,286047001.0,N
1617175095.5,286047000.3,N
1617175115.4,286047000.6,N
1617175135.2,286047000.8,N
1617175155.0,286047000.5,N
1617175156.0,286047000.5,N
1617175175.8,286046998.3,N
1617175195.6,286047001.1,N
1617175215.5,286046998.2,N
1617175235.3,286046998.7,N
1617175255.1,286046998.9,N
1617175275.9,286046998.1,N
1617175295.7,286047000.4,N
1617175315.5,286047000.8,N
1617175335.4,286047001.2,N
1617175355.2,286047001.2,N
1617175375.1,286046998.6,N
1617175376.0,286046998.6,N
1617175395.8,286047000.8,N
1617175415.6,286046998.3,N
1617175435.5,286046999.0,N
1617175455.3,286047001.0,N
1617175475.1,286047000.0,N
1617175495.9,286047000.7,N
1617175515.7,286047000.9,N
1617175535.6,286047001.5,N
1617175555.4,286047002.2,N
1617175575.2,286047002.5,N
1617175595.1,286046999.7,N
1617175596.0,286046999.7,N
1617175615.8,286047002.2,N
1617175635.7,286047004.0,Y
1617175655.5,286047001.6,P
1617175675.3,286047002.5,P
1617175695.2,286047000.6,N
1617175715.9,286046999.9,N
1617175735.7,286046998.7,N
1617175755.6,286046999.6,N
1617175775.4,286046994.9,Y
1617175795.3,286046996.4,P
1617175815.1,286046996.4,N
1617175816.0,286046996.4,N
1617175835.8,286046992.1,Y
1617175855.7,286046995.3,P
1617175875.5,286046993.3,P
1617175895.3,286046986.3,P
1617175915.2,286046997.2,N
1617175935.0,286046995.6,N
1617175935.9,286046995.6,N
1617175955.8,286046993.7,N
1617175975.6,286046994.1,N
1617175995.4,286046990.8,N
1617176015.3,286046990.6,Y
1617176035.1,286046997.5,P
1617176055.8,286046999.5,N
1617176075.7,286047000.8,N
1617176095.5,286047001.8,N
1617176115.4,286047003.4,N
1617176135.2,286047003.4,N
1617176155.0,286047003.2,N
1617176155.9,286047003.2,N
1617176175.8,286047005.4,N
1617176195.6,286047005.1,N
1617176215.4,286047007.0,N
1617176235.3,286047007.5,N
1617176255.1,286047004.8,N
1617176275.9,286047004.8,N
1617176295.7,286047005.4,N
1617176315.5,286047003.6,N
1617176335.4,286047005.6,N
1617176355.2,286047003.3,N
1617176375.0,286047003.3,N
1617176375.9,286047003.3,N
1617176395.8,286047005.3,N
1617176415.6,286047004.9,N
1617176435.5,286047006.9,N
1617176455.3,286047006.2,N
1617176475.1,286047008.3,N
1617176495.9,286047006.2,N
1617176515.7,286047008.4,N
1617176535.5,286047007.1,N
1617176555.4,286047004.8,N
1617176575.2,286047007.2,N
1617176595.1,286047007.6,Y
1617176596.0,286047007.6,P
1617176615.8,286046999.9,N
1617176635.6,286047002.5,N
1617176655.5,286047003.7,N
1617176675.3,286047007.0,N
1617176695.1,286047006.2,N
1617176715.9,286047005.9,N
1617176735.7,286047003.0,N
1617176755.5,286047004.2,N
1617176775.4,286047000.1,N
1617176795.2,286047000.5,N
1617176815.1,286047000.7,N
1617176816.0,286047000.7,N
1617176835.8,286046998.1,N
1617176855.6,286047000.9,N
1617176875.5,286047004.4,N
1617176895.3,286047001.5,N
1617176915.1,286047004.4,N
1617176935.9,286047001.5,N
1617176955.7,286047005.6,N
1617176975.6,286047006.0,N
1617176995.4,286047006.0,N
1617177015.2,286047001.8,N
1617177035.1,286047003.1,N
1617177036.0,286047003.1,N
1617177055.8,286047003.8,N
1617177075.7,286047005.5,N
1617177095.5,286047005.7,N
1617177115.3,286047005.7,N
1617177135.2,286047004.6,N
1617177155.9,286047005.0,N
1617177175.7,286047005.8,N
1617177195.6,286047006.0,N
1617177215.4,286047005.4,N
1617177235.3,286047004.1,N
1617177255.1,286047004.0,N
1617177256.0,286047004.0,N
1617177275.8,286046999.8,N
1617177295.7,286047004.1,N
1617177315.5,286047002.4,N
1617177335.3,286047001.1,N
1617177355.2,286047000.7,N
1617177375.0,286047000.0,N
1617177375.9,286047000.0,N
1617177395.8,286047002.7,N
1617177415.6,286047001.6,N
1617177435.4,286047000.1,N
1617177455.3,286047002.8,N
1617177475.1,286046999.7,N
1617177495.8,286047000.9,N
1617177515.7,286047000.6,N
1617177535.5,286047001.1,N
1617177555.4,286047001.0,N
1617177575.2,286046998.6,N
1617177595.0,286047000.8,N
1617177595.9,286047000.8,N
